Location: Arborea
(39.7744°N, 8.5819°E)
Time: 19:24:19
(UTC+00:00)

CZ-2C DEB - Pass Details

Date: 24 August 2022
Orbit: 681 x 927 km, 97.9° (Epoch: 03 October)

Event Time Altitude Azimuth Distance (km) Brightness Sun altitude
Rises 22:12:53 0° 0° (N) 3,319 ? -36.5°
Reaches altitude 10° 22:15:26 10° 350° (N) 2,424 ? -36.6°
Enters shadow 22:19:21 28° 304° (NW) 1,537 ? -36.9°
